Weather in Bern

Switzerland     46˚56′56″N   7˚26′27″E
temp.,
°C
wind,
m/s
gust,
m/s
humid.,
%
clouds,
%
prec.,
mm/h
press.,
hPa
HPBL,
m
29 november, sun
sun2901:00−3˚ne249022 0.0 1018126
04:00−3˚ne149495 0.0 1018112
07:00−3˚ne259797 0.0 1018193
10:00−1˚ne3582100 0.0 1019348
13:00+1˚ne3672100 0.0 1019413
16:00ne36788 0.0 1019371
19:00−4˚ne25944 0.0 1021162
22:00−4˚ne24954 0.0 1022122
30 november, mon
mon3001:00−5˚ne12962 0.0 102450
04:00−5˚nne11980 0.0 102327
07:00−5˚e11982 0.0 102422
10:00−1˚n11791 0.0 1025179
13:00+3˚nnw11641 0.0 1024365
16:00nw00780 0.0 102422
19:00−3˚s11911 0.0 102521
22:00−3˚ssw11928 0.0 102621
1 december, tue
tue101:00−3˚ssw12934 0.0 102522
04:00−2˚s1286100 0.0 102326
07:00ssw2897100 0.8 1021314
10:00+2˚s2787100 0.5 1019270
13:00+4˚wsw4109699 2.7 1016677
16:00+2˚sw2799100 2.2 1015310
19:00+1˚wsw129998 2.4 101659
22:00ne009998 0.0 101721
2 december, wed
wed201:00nne129999 0.1 1017104
04:00ne249998 0.1 1016232
07:00nne269899 0.2 1016304
10:00+1˚ne2698100 0.1 1016370
13:00+1˚ne478888 0.1 1014584
16:00ne379176 0.0 1014509
19:00−1˚ne279570 0.0 1015314
22:00−2˚ene139694 0.0 101597
3 december, thu
thu301:00−4˚ene119673 0.0 101421
04:00−4˚e119539 0.0 101324
07:00−3˚ese119358 0.0 101264
10:00−1˚ene138495 0.0 1010300
13:00+1˚ne117596 0.0 1007648
16:00nne1079100 0.0 1006341
19:00−2˚e118794 0.0 100422
22:00−4˚wsw009430 0.0 100221